Вернуться в каталог

COMSATBW-2

АктивенВоенныеGEO
NORAD 36582·PAYLOAD·🇩🇪 Germany

Запущен May 21, 2010 с Guiana Space Centre

Loading…

TLE

СвежийSource: Space-Track

Эпоха: Sep 14, 2026, 13:52 UTC

1 36582U 10021B   26257.57778770  .00000081  00000-0  00000-0 0  9997
2 36582   0.0329 115.2650 0002730  78.9757  20.5745  1.00275110 59852

Отслеживайте COMSATBW-2 в реальном времени с AllMySat

Download on the App Store